Location: �mondeville
(49.4591°N, 1.3431°W)
Time: 07:54:37
(UTC+00:00)

Cosmos 2322 Rocket - Pass Details

Date: 22 October 2019
Orbit: 833 x 850 km, 71.0° (Epoch: 17 November)

Event Time Altitude Azimuth Distance (km) Brightness Sun altitude
Exits shadow 02:49:33 20° 5° (N) 1,865 4.2 -36.6°
Drops below altitude 10° 02:51:24 10° 17° (NNE) 2,456 5.1 -36.3°
Sets 02:54:03 0° 26° (NNE) 3,394 6.0 -35.9°
